Time,TemperatureF,DewpointF,PressureIn,WindDirection,WindDirectionDegrees,WindSpeedMPH,WindSpeedGustMPH,Humidity,HourlyPrecipIn,Conditions,Clouds,dailyrainin,SoftwareType,DateUTC
2013-05-01 00:01:00,55.9,51.5,30.23,South,188,0.0,0.0,85,0.00,,,0.00,Wunderground v.1.15,2013-05-01 04:01:00,
2013-05-01 00:02:00,55.9,51.5,30.23,South,188,0.0,0.0,85,0.00,,,0.00,Wunderground v.1.15,2013-05-01 04:02:00,
2013-05-01 00:06:00,55.9,51.5,30.23,South,188,0.0,0.0,85,0.00,,,0.00,Wunderground v.1.15,2013-05-01 04:06:00,
2013-05-01 00:08:00,55.7,51.3,30.23,South,188,0.0,0.0,85,0.00,,,0.00,Wunderground v.1.15,2013-05-01 04:08:00,
2013-05-01 00:09:00,55.7,51.3,30.23,South,188,0.0,0.0,85,0.00,,,0.00,Wunderground v.1.15,2013-05-01 04:09:00,
2013-05-01 00:18:00,55.7,51.3,30.23,South,188,0.0,0.0,85,0.00,,,0.00,Wunderground v.1.15,2013-05-01 04:18:00,
2013-05-01 00:25:00,55.6,51.2,30.23,South,188,0.0,0.0,85,0.00,,,0.00,Wunderground v.1.15,2013-05-01 04:25:00,
2013-05-01 00:31:00,55.6,51.2,30.23,South,188,0.0,0.0,85,0.00,,,0.00,Wunderground v.1.15,2013-05-01 04:31:00,
2013-05-01 00:37:00,55.4,51.0,30.23,South,188,0.0,0.0,85,0.00,,,0.00,Wunderground v.1.15,2013-05-01 04:37:00,
2013-05-01 00:46:00,55.4,51.0,30.23,South,188,0.0,0.0,85,0.00,,,0.00,Wunderground v.1.15,2013-05-01 04:46:00,
2013-05-01 00:51:00,55.3,50.9,30.23,South,188,0.0,0.0,85,0.00,,,0.00,Wunderground v.1.15,2013-05-01 04:51:00,
2013-05-01 00:56:00,55.3,50.9,30.23,South,188,0.0,0.0,85,0.00,,,0.00,Wunderground v.1.15,2013-05-01 04:56:00,
2013-05-01 01:02:00,55.1,50.7,30.23,South,188,0.0,0.0,85,0.00,,,0.00,Wunderground v.1.15,2013-05-01 05:02:00,
2013-05-01 01:07:00,55.1,51.0,30.23,South,188,0.0,0.0,86,0.00,,,0.00,Wunderground v.1.15,2013-05-01 05:07:00,
2013-05-01 01:12:00,55.0,50.9,30.23,South,188,0.0,0.0,86,0.00,,,0.00,Wunderground v.1.15,2013-05-01 05:12:00,
2013-05-01 01:18:00,54.8,50.7,30.23,South,188,0.0,0.0,86,0.00,,,0.00,Wunderground v.1.15,2013-05-01 05:18:00,
2013-05-01 01:25:00,54.7,50.3,30.23,South,188,0.0,0.0,85,0.00,,,0.00,Wunderground v.1.15,2013-05-01 05:25:00,
2013-05-01 01:30:00,54.5,50.1,30.23,South,189,0.0,0.0,85,0.00,,,0.00,Wunderground v.1.15,2013-05-01 05:30:00,
2013-05-01 01:36:00,54.4,50.3,30.23,South,188,0.0,0.0,86,0.00,,,0.00,Wunderground v.1.15,2013-05-01 05:36:00,
2013-05-01 01:42:00,54.4,50.3,30.23,South,188,0.0,0.0,86,0.00,,,0.00,Wunderground v.1.15,2013-05-01 05:42:00,
2013-05-01 01:48:00,54.2,50.1,30.23,South,189,0.0,0.0,86,0.00,,,0.00,Wunderground v.1.15,2013-05-01 05:48:00,
2013-05-01 01:55:00,54.1,50.0,30.23,South,188,0.0,0.0,86,0.00,,,0.00,Wunderground v.1.15,2013-05-01 05:55:00,
2013-05-01 02:01:00,53.9,50.1,30.23,South,188,0.0,0.0,87,0.00,,,0.00,Wunderground v.1.15,2013-05-01 06:01:00,
2013-05-01 02:07:00,53.9,50.1,30.23,South,188,0.0,0.0,87,0.00,,,0.00,Wunderground v.1.15,2013-05-01 06:07:00,
2013-05-01 02:12:00,53.8,50.0,30.23,South,188,0.0,0.0,87,0.00,,,0.00,Wunderground v.1.15,2013-05-01 06:12:00,
2013-05-01 02:17:00,53.8,50.0,30.23,South,188,0.0,0.0,87,0.00,,,0.00,Wunderground v.1.15,2013-05-01 06:17:00,
2013-05-01 02:22:00,53.6,49.8,30.23,South,188,0.0,0.0,87,0.00,,,0.00,Wunderground v.1.15,2013-05-01 06:22:00,
2013-05-01 02:28:00,53.6,49.8,30.23,South,188,0.0,0.0,87,0.00,,,0.00,Wunderground v.1.15,2013-05-01 06:28:00,
2013-05-01 02:37:00,53.6,49.8,30.23,South,188,0.0,0.0,87,0.00,,,0.00,Wunderground v.1.15,2013-05-01 06:37:00,
2013-05-01 02:46:00,53.5,49.7,30.22,South,189,0.0,0.0,87,0.00,,,0.00,Wunderground v.1.15,2013-05-01 06:46:00,
2013-05-01 02:52:00,53.5,50.0,30.22,South,188,0.0,0.0,88,0.00,,,0.00,Wunderground v.1.15,2013-05-01 06:52:00,
2013-05-01 02:57:00,53.5,50.0,30.22,South,188,0.0,0.0,88,0.00,,,0.00,Wunderground v.1.15,2013-05-01 06:57:00,
2013-05-01 03:04:00,53.5,50.0,30.23,South,188,0.0,0.0,88,0.00,,,0.00,Wunderground v.1.15,2013-05-01 07:04:00,
2013-05-01 03:10:00,53.5,50.0,30.23,South,188,0.0,0.0,88,0.00,,,0.00,Wunderground v.1.15,2013-05-01 07:10:00,
2013-05-01 03:17:00,53.5,50.0,30.23,South,188,0.0,0.0,88,0.00,,,0.00,Wunderground v.1.15,2013-05-01 07:17:00,
2013-05-01 03:24:00,53.5,50.0,30.23,South,188,0.0,0.0,88,0.00,,,0.00,Wunderground v.1.15,2013-05-01 07:24:00,
2013-05-01 03:30:00,53.5,50.0,30.23,South,188,0.0,0.0,88,0.00,,,0.00,Wunderground v.1.15,2013-05-01 07:30:00,
2013-05-01 03:37:00,53.5,50.0,30.23,South,188,0.0,0.0,88,0.00,,,0.00,Wunderground v.1.15,2013-05-01 07:37:00,
2013-05-01 03:45:00,53.5,50.0,30.23,South,188,0.0,0.0,88,0.00,,,0.00,Wunderground v.1.15,2013-05-01 07:45:00,
2013-05-01 03:50:00,53.5,50.0,30.23,South,188,0.0,0.0,88,0.00,,,0.00,Wunderground v.1.15,2013-05-01 07:50:00,
2013-05-01 03:57:00,53.5,50.3,30.23,South,188,0.0,0.0,89,0.00,,,0.00,Wunderground v.1.15,2013-05-01 07:57:00,
2013-05-01 04:02:00,53.3,50.1,30.24,South,188,0.0,0.0,89,0.00,,,0.00,Wunderground v.1.15,2013-05-01 08:02:00,
2013-05-01 04:07:00,53.3,50.1,30.24,South,188,0.0,0.0,89,0.00,,,0.00,Wunderground v.1.15,2013-05-01 08:07:00,
2013-05-01 04:17:00,53.2,50.0,30.24,South,188,0.0,0.0,89,0.00,,,0.00,Wunderground v.1.15,2013-05-01 08:17:00,
2013-05-01 04:24:00,53.1,49.9,30.24,South,188,0.0,0.0,89,0.00,,,0.00,Wunderground v.1.15,2013-05-01 08:24:00,
2013-05-01 04:30:00,52.9,49.7,30.24,South,188,0.0,0.0,89,0.00,,,0.00,Wunderground v.1.15,2013-05-01 08:30:00,
2013-05-01 04:36:00,52.9,49.7,30.24,South,188,0.0,0.0,89,0.00,,,0.00,Wunderground v.1.15,2013-05-01 08:36:00,
2013-05-01 04:42:00,53.1,49.9,30.24,South,188,0.0,0.0,89,0.00,,,0.00,Wunderground v.1.15,2013-05-01 08:42:00,
2013-05-01 04:48:00,53.1,49.9,30.24,South,188,0.0,0.0,89,0.00,,,0.00,Wunderground v.1.15,2013-05-01 08:48:00,
2013-05-01 04:56:00,53.1,49.9,30.24,South,188,0.0,0.0,89,0.00,,,0.00,Wunderground v.1.15,2013-05-01 08:56:00,
2013-05-01 05:02:00,53.1,49.9,30.24,South,188,0.0,0.0,89,0.00,,,0.00,Wunderground v.1.15,2013-05-01 09:02:00,
2013-05-01 05:07:00,52.8,49.3,30.24,South,188,0.0,0.0,88,0.00,,,0.00,Wunderground v.1.15,2013-05-01 09:07:00,
2013-05-01 05:16:00,52.2,48.1,30.24,South,189,0.0,0.0,86,0.00,,,0.00,Wunderground v.1.15,2013-05-01 09:16:00,
2013-05-01 05:21:00,51.7,46.4,30.24,SSW,203,0.0,0.0,82,0.00,,,0.00,Wunderground v.1.15,2013-05-01 09:21:00,
2013-05-01 05:26:00,51.4,45.1,30.24,SSW,200,0.0,0.0,79,0.00,,,0.00,Wunderground v.1.15,2013-05-01 09:26:00,
2013-05-01 05:32:00,51.3,43.3,30.25,South,185,0.0,3.0,74,0.00,,,0.00,Wunderground v.1.15,2013-05-01 09:32:00,
2013-05-01 05:37:00,51.3,42.9,30.25,South,185,0.0,3.0,73,0.00,,,0.00,Wunderground v.1.15,2013-05-01 09:37:00,
2013-05-01 05:46:00,51.4,42.3,30.25,WSW,246,0.0,0.0,71,0.00,,,0.00,Wunderground v.1.15,2013-05-01 09:46:00,
2013-05-01 05:51:00,51.4,41.9,30.25,WSW,258,0.0,0.0,70,0.00,,,0.00,Wunderground v.1.15,2013-05-01 09:51:00,
2013-05-01 05:57:00,51.4,41.6,30.25,WSW,258,0.0,0.0,69,0.00,,,0.00,Wunderground v.1.15,2013-05-01 09:57:00,
2013-05-01 06:07:00,51.3,41.5,30.25,WSW,258,0.0,0.0,69,0.00,,,0.00,Wunderground v.1.15,2013-05-01 10:07:00,
2013-05-01 06:15:00,51.3,41.1,30.27,WSW,248,0.0,0.0,68,0.00,,,0.00,Wunderground v.1.15,2013-05-01 10:15:00,
2013-05-01 06:20:00,51.3,41.1,30.27,South,176,0.0,0.0,68,0.00,,,0.00,Wunderground v.1.15,2013-05-01 10:20:00,
2013-05-01 06:26:00,51.3,41.1,30.27,WSW,254,0.0,0.0,68,0.00,,,0.00,Wunderground v.1.15,2013-05-01 10:26:00,
2013-05-01 06:31:00,51.3,40.3,30.27,South,184,0.0,0.0,66,0.00,,,0.00,Wunderground v.1.15,2013-05-01 10:31:00,
2013-05-01 06:37:00,51.1,40.1,30.27,South,184,0.0,1.0,66,0.00,,,0.00,Wunderground v.1.15,2013-05-01 10:37:00,
2013-05-01 06:46:00,51.1,38.9,30.27,SSE,164,0.0,0.0,63,0.00,,,0.00,Wunderground v.1.15,2013-05-01 10:46:00,
2013-05-01 06:51:00,51.1,39.3,30.27,SSE,164,0.0,0.0,64,0.00,,,0.00,Wunderground v.1.15,2013-05-01 10:51:00,
2013-05-01 06:57:00,51.3,39.5,30.27,SSE,162,0.0,0.0,64,0.00,,,0.00,Wunderground v.1.15,2013-05-01 10:57:00,
2013-05-01 07:06:00,51.6,39.8,30.29,SSE,164,0.0,0.0,64,0.00,,,0.00,Wunderground v.1.15,2013-05-01 11:06:00,
2013-05-01 07:12:00,51.7,39.5,30.29,SSE,164,0.0,0.0,63,0.00,,,0.00,Wunderground v.1.15,2013-05-01 11:12:00,
2013-05-01 07:17:00,51.7,39.5,30.29,SSE,162,0.0,0.0,63,0.00,,,0.00,Wunderground v.1.15,2013-05-01 11:17:00,
2013-05-01 07:24:00,51.9,40.1,30.29,SSE,164,0.0,0.0,64,0.00,,,0.00,Wunderground v.1.15,2013-05-01 11:24:00,
2013-05-01 07:29:00,52.0,40.2,30.29,SSE,164,0.0,0.0,64,0.00,,,0.00,Wunderground v.1.15,2013-05-01 11:29:00,
2013-05-01 07:37:00,52.0,39.8,30.29,SW,222,0.0,0.0,63,0.00,,,0.00,Wunderground v.1.15,2013-05-01 11:37:00,
2013-05-01 07:44:00,52.2,39.6,30.30,SSW,195,0.0,0.0,62,0.00,,,0.00,Wunderground v.1.15,2013-05-01 11:44:00,
2013-05-01 07:50:00,52.3,39.2,30.30,South,189,0.0,0.0,61,0.00,,,0.00,Wunderground v.1.15,2013-05-01 11:50:00,
2013-05-01 07:57:00,52.6,39.5,30.30,SSW,202,0.0,0.0,61,0.00,,,0.00,Wunderground v.1.15,2013-05-01 11:57:00,
2013-05-01 08:04:00,52.9,39.0,30.30,SSW,206,0.0,0.0,59,0.00,,,0.00,Wunderground v.1.15,2013-05-01 12:04:00,
2013-05-01 08:10:00,53.1,37.8,30.30,South,184,0.0,1.0,56,0.00,,,0.00,Wunderground v.1.15,2013-05-01 12:10:00,
2013-05-01 08:16:00,53.3,38.0,30.31,WSW,247,0.0,1.0,56,0.00,,,0.00,Wunderground v.1.15,2013-05-01 12:16:00,
2013-05-01 08:22:00,53.5,38.6,30.31,WSW,248,0.0,0.0,57,0.00,,,0.00,Wunderground v.1.15,2013-05-01 12:22:00,
2013-05-01 08:28:00,53.8,38.5,30.31,WSW,246,0.0,0.0,56,0.00,,,0.00,Wunderground v.1.15,2013-05-01 12:28:00,
2013-05-01 08:36:00,53.9,38.6,30.31,South,178,1.0,1.0,56,0.00,,,0.00,Wunderground v.1.15,2013-05-01 12:36:00,
2013-05-01 08:42:00,54.1,39.2,30.31,SSW,209,1.0,2.0,57,0.00,,,0.00,Wunderground v.1.15,2013-05-01 12:42:00,
2013-05-01 08:48:00,54.4,38.6,30.31,SE,138,1.0,2.0,55,0.00,,,0.00,Wunderground v.1.15,2013-05-01 12:48:00,
2013-05-01 08:57:00,54.8,39.4,30.31,SW,220,1.0,3.0,56,0.00,,,0.00,Wunderground v.1.15,2013-05-01 12:57:00,
2013-05-01 09:02:00,55.0,40.0,30.31,SSW,208,1.0,1.0,57,0.00,,,0.00,Wunderground v.1.15,2013-05-01 13:02:00,
2013-05-01 09:07:00,55.3,40.3,30.31,SE,136,0.0,1.0,57,0.00,,,0.00,Wunderground v.1.15,2013-05-01 13:07:00,
2013-05-01 09:12:00,55.6,39.7,30.31,SSE,162,1.0,5.0,55,0.00,,,0.00,Wunderground v.1.15,2013-05-01 13:12:00,
2013-05-01 09:18:00,55.9,41.3,30.32,SW,229,1.0,5.0,58,0.00,,,0.00,Wunderground v.1.15,2013-05-01 13:18:00,
2013-05-01 09:25:00,56.3,41.7,30.32,SSW,210,1.0,2.0,58,0.00,,,0.00,Wunderground v.1.15,2013-05-01 13:25:00,
2013-05-01 09:30:00,56.7,41.2,30.32,SSW,208,0.0,1.0,56,0.00,,,0.00,Wunderground v.1.15,2013-05-01 13:30:00,
2013-05-01 09:36:00,57.0,41.9,30.32,West,263,0.0,1.0,57,0.00,,,0.00,Wunderground v.1.15,2013-05-01 13:36:00,
2013-05-01 09:42:00,57.5,41.4,30.32,WSW,256,0.0,1.0,55,0.00,,,0.00,Wunderground v.1.15,2013-05-01 13:42:00,
2013-05-01 09:47:00,57.8,42.2,30.32,WSW,241,0.0,1.0,56,0.00,,,0.00,Wunderground v.1.15,2013-05-01 13:47:00,
2013-05-01 09:52:00,58.1,41.5,30.32,SSW,208,0.0,2.0,54,0.00,,,0.00,Wunderground v.1.15,2013-05-01 13:52:00,
2013-05-01 09:58:00,58.6,40.0,30.32,SW,227,1.0,4.0,50,0.00,,,0.00,Wunderground v.1.15,2013-05-01 13:58:00,
2013-05-01 10:06:00,59.2,40.0,30.32,West,263,1.0,2.0,49,0.00,,,0.00,Wunderground v.1.15,2013-05-01 14:06:00,
2013-05-01 10:12:00,59.5,38.1,30.32,SSW,200,1.0,7.0,45,0.00,,,0.00,Wunderground v.1.15,2013-05-01 14:12:00,
2013-05-01 10:18:00,59.8,41.1,30.32,West,264,2.0,7.0,50,0.00,,,0.00,Wunderground v.1.15,2013-05-01 14:18:00,
2013-05-01 10:27:00,60.5,40.2,30.32,WSW,258,1.0,2.0,47,0.00,,,0.00,Wunderground v.1.15,2013-05-01 14:27:00,
2013-05-01 10:35:00,61.2,37.9,30.33,WSW,244,1.0,1.0,42,0.00,,,0.00,Wunderground v.1.15,2013-05-01 14:35:00,
2013-05-01 10:40:00,61.5,39.9,30.33,SW,217,2.0,2.0,45,0.00,,,0.00,Wunderground v.1.15,2013-05-01 14:40:00,
2013-05-01 10:46:00,61.6,39.5,30.33,West,270,1.0,2.0,44,0.00,,,0.00,Wunderground v.1.15,2013-05-01 14:46:00,
2013-05-01 10:52:00,62.0,39.8,30.33,SSW,203,1.0,1.0,44,0.00,,,0.00,Wunderground v.1.15,2013-05-01 14:52:00,
2013-05-01 10:57:00,62.1,38.1,30.33,SW,227,1.0,1.0,41,0.00,,,0.00,Wunderground v.1.15,2013-05-01 14:57:00,
2013-05-01 11:06:00,62.4,39.0,30.33,West,268,1.0,3.0,42,0.00,,,0.00,Wunderground v.1.15,2013-05-01 15:06:00,
2013-05-01 11:11:00,62.7,38.6,30.33,WSW,257,1.0,1.0,41,0.00,,,0.00,Wunderground v.1.15,2013-05-01 15:11:00,
2013-05-01 11:17:00,63.4,39.3,30.33,West,261,1.0,1.0,41,0.00,,,0.00,Wunderground v.1.15,2013-05-01 15:17:00,
2013-05-01 11:22:00,63.4,38.6,30.33,West,261,1.0,2.0,40,0.00,,,0.00,Wunderground v.1.15,2013-05-01 15:22:00,
2013-05-01 11:28:00,63.7,38.9,30.33,West,272,1.0,5.0,40,0.00,,,0.00,Wunderground v.1.15,2013-05-01 15:28:00,
2013-05-01 11:36:00,64.2,36.0,30.32,WNW,298,1.0,1.0,35,0.00,,,0.00,Wunderground v.1.15,2013-05-01 15:36:00,
2013-05-01 11:41:00,64.5,41.5,30.32,SSW,196,1.0,1.0,43,0.00,,,0.00,Wunderground v.1.15,2013-05-01 15:41:00,
2013-05-01 11:49:00,65.0,38.1,30.32,WNW,284,1.0,1.0,37,0.00,,,0.00,Wunderground v.1.15,2013-05-01 15:49:00,
2013-05-01 11:57:00,65.3,41.6,30.32,NW,308,1.0,2.0,42,0.00,,,0.00,Wunderground v.1.15,2013-05-01 15:57:00,
2013-05-01 12:04:00,66.0,40.3,30.32,WNW,284,0.0,3.0,39,0.00,,,0.00,Wunderground v.1.15,2013-05-01 16:04:00,
2013-05-01 12:10:00,66.0,41.6,30.32,NW,326,0.0,0.0,41,0.00,,,0.00,Wunderground v.1.15,2013-05-01 16:10:00,
2013-05-01 12:17:00,65.6,38.6,30.32,WNW,296,0.0,1.0,37,0.00,,,0.00,Wunderground v.1.15,2013-05-01 16:17:00,
2013-05-01 12:24:00,66.1,40.4,30.32,West,261,1.0,1.0,39,0.00,,,0.00,Wunderground v.1.15,2013-05-01 16:24:00,
2013-05-01 12:30:00,66.4,41.3,30.31,NW,325,1.0,1.0,40,0.00,,,0.00,Wunderground v.1.15,2013-05-01 16:30:00,
2013-05-01 12:37:00,66.8,39.0,30.31,NNW,344,1.0,2.0,36,0.00,,,0.00,Wunderground v.1.15,2013-05-01 16:37:00,
2013-05-01 12:46:00,66.9,41.8,30.31,West,263,0.0,1.0,40,0.00,,,0.00,Wunderground v.1.15,2013-05-01 16:46:00,
2013-05-01 12:52:00,67.3,42.8,30.31,WSW,244,0.0,3.0,41,0.00,,,0.00,Wunderground v.1.15,2013-05-01 16:52:00,
2013-05-01 12:57:00,67.4,40.9,30.31,WNW,287,1.0,3.0,38,0.00,,,0.00,Wunderground v.1.15,2013-05-01 16:57:00,
2013-05-01 13:07:00,68.3,39.6,30.31,WSW,254,1.0,2.0,35,0.00,,,0.00,Wunderground v.1.15,2013-05-01 17:07:00,
2013-05-01 13:14:00,68.9,45.5,30.30,NW,304,1.0,1.0,43,0.00,,,0.00,Wunderground v.1.15,2013-05-01 17:14:00,
2013-05-01 13:20:00,69.1,40.3,30.30,West,281,1.0,1.0,35,0.00,,,0.00,Wunderground v.1.15,2013-05-01 17:20:00,
2013-05-01 13:27:00,69.3,41.9,30.30,NW,311,1.0,1.0,37,0.00,,,0.00,Wunderground v.1.15,2013-05-01 17:27:00,
2013-05-01 13:36:00,69.4,39.8,30.30,WSW,247,1.0,1.0,34,0.00,,,0.00,Wunderground v.1.15,2013-05-01 17:36:00,
2013-05-01 13:42:00,70.1,43.3,30.30,NW,311,1.0,1.0,38,0.00,,,0.00,Wunderground v.1.15,2013-05-01 17:42:00,
2013-05-01 13:48:00,70.4,44.3,30.30,WNW,298,1.0,2.0,39,0.00,,,0.00,Wunderground v.1.15,2013-05-01 17:48:00,
2013-05-01 13:56:00,70.6,38.5,30.30,NNW,339,0.0,1.0,31,0.00,,,0.00,Wunderground v.1.15,2013-05-01 17:56:00,
2013-05-01 14:02:00,70.6,40.1,30.29,WNW,302,0.0,0.0,33,0.00,,,0.00,Wunderground v.1.15,2013-05-01 18:02:00,
2013-05-01 14:07:00,70.9,39.6,30.29,NW,306,0.0,2.0,32,0.00,,,0.00,Wunderground v.1.15,2013-05-01 18:07:00,
2013-05-01 14:12:00,71.8,45.5,30.29,NW,319,1.0,1.0,39,0.00,,,0.00,Wunderground v.1.15,2013-05-01 18:12:00,
2013-05-01 14:18:00,72.1,36.3,30.29,WNW,294,0.0,1.0,27,0.00,,,0.00,Wunderground v.1.15,2013-05-01 18:18:00,
2013-05-01 14:28:00,72.1,37.2,30.29,West,278,1.0,1.0,28,0.00,,,0.00,Wunderground v.1.15,2013-05-01 18:28:00,
2013-05-01 14:35:00,72.3,40.8,30.29,WNW,299,1.0,1.0,32,0.00,,,0.00,Wunderground v.1.15,2013-05-01 18:35:00,
2013-05-01 14:41:00,72.5,37.5,30.29,WNW,294,1.0,3.0,28,0.00,,,0.00,Wunderground v.1.15,2013-05-01 18:41:00,
2013-05-01 14:47:00,72.8,37.8,30.29,WSW,258,1.0,3.0,28,0.00,,,0.00,Wunderground v.1.15,2013-05-01 18:47:00,
2013-05-01 14:55:00,73.2,38.1,30.29,South,176,0.0,2.0,28,0.00,,,0.00,Wunderground v.1.15,2013-05-01 18:55:00,
2013-05-01 15:01:00,73.0,37.0,30.28,West,271,0.0,1.0,27,0.00,,,0.00,Wunderground v.1.15,2013-05-01 19:01:00,
2013-05-01 15:06:00,73.5,38.4,30.28,WNW,296,0.0,1.0,28,0.00,,,0.00,Wunderground v.1.15,2013-05-01 19:06:00,
2013-05-01 15:12:00,73.7,40.3,30.28,WNW,298,1.0,2.0,30,0.00,,,0.00,Wunderground v.1.15,2013-05-01 19:12:00,
2013-05-01 15:18:00,73.7,40.3,30.28,WNW,298,1.0,3.0,30,0.00,,,0.00,Wunderground v.1.15,2013-05-01 19:18:00,
2013-05-01 15:26:00,73.9,39.6,30.28,WNW,292,1.0,1.0,29,0.00,,,0.00,Wunderground v.1.15,2013-05-01 19:26:00,
2013-05-01 15:32:00,73.5,36.5,30.28,NNW,340,0.0,0.0,26,0.00,,,0.00,Wunderground v.1.15,2013-05-01 19:32:00,
2013-05-01 15:37:00,73.0,37.0,30.28,WNW,298,1.0,1.0,27,0.00,,,0.00,Wunderground v.1.15,2013-05-01 19:37:00,
2013-05-01 15:45:00,72.8,37.8,30.28,WNW,287,1.0,2.0,28,0.00,,,0.00,Wunderground v.1.15,2013-05-01 19:45:00,
2013-05-01 15:51:00,73.2,38.1,30.28,WNW,295,1.0,1.0,28,0.00,,,0.00,Wunderground v.1.15,2013-05-01 19:51:00,
2013-05-01 15:56:00,73.3,36.3,30.28,WNW,285,1.0,2.0,26,0.00,,,0.00,Wunderground v.1.15,2013-05-01 19:56:00,
2013-05-01 16:02:00,73.7,38.6,30.27,WNW,285,1.0,1.0,28,0.00,,,0.00,Wunderground v.1.15,2013-05-01 20:02:00,
2013-05-01 16:08:00,74.0,33.8,30.27,South,178,0.0,5.0,23,0.00,,,0.00,Wunderground v.1.15,2013-05-01 20:08:00,
2013-05-01 16:16:00,74.2,36.1,30.27,WNW,288,1.0,3.0,25,0.00,,,0.00,Wunderground v.1.15,2013-05-01 20:16:00,
2013-05-01 16:22:00,73.7,35.7,30.27,WNW,287,1.0,3.0,25,0.00,,,0.00,Wunderground v.1.15,2013-05-01 20:22:00,
2013-05-01 16:30:00,73.7,38.6,30.28,WNW,298,1.0,3.0,28,0.00,,,0.00,Wunderground v.1.15,2013-05-01 20:30:00,
2013-05-01 16:38:00,73.7,34.6,30.28,NW,319,0.0,0.0,24,0.00,,,0.00,Wunderground v.1.15,2013-05-01 20:38:00,
2013-05-01 16:45:00,73.3,35.3,30.28,NW,316,0.0,1.0,25,0.00,,,0.00,Wunderground v.1.15,2013-05-01 20:45:00,
2013-05-01 16:50:00,72.7,35.8,30.28,NNW,340,0.0,0.0,26,0.00,,,0.00,Wunderground v.1.15,2013-05-01 20:50:00,
2013-05-01 16:57:00,72.0,36.2,30.28,WNW,289,1.0,3.0,27,0.00,,,0.00,Wunderground v.1.15,2013-05-01 20:57:00,
2013-05-01 17:08:00,71.8,35.0,30.28,WSW,254,1.0,5.0,26,0.00,,,0.00,Wunderground v.1.15,2013-05-01 21:08:00,
2013-05-01 17:17:00,71.6,35.8,30.29,WNW,289,1.0,2.0,27,0.00,,,0.00,Wunderground v.1.15,2013-05-01 21:17:00,
2013-05-01 17:28:00,71.3,33.6,30.29,NW,315,0.0,1.0,25,0.00,,,0.00,Wunderground v.1.15,2013-05-01 21:28:00,
2013-05-01 17:35:00,71.3,34.6,30.29,NW,305,0.0,1.0,26,0.00,,,0.00,Wunderground v.1.15,2013-05-01 21:35:00,
2013-05-01 17:40:00,71.1,34.5,30.29,NW,305,1.0,1.0,26,0.00,,,0.00,Wunderground v.1.15,2013-05-01 21:40:00,
2013-05-01 17:48:00,70.9,34.3,30.29,WNW,282,1.0,1.0,26,0.00,,,0.00,Wunderground v.1.15,2013-05-01 21:48:00,
2013-05-01 17:55:00,70.9,35.2,30.29,WNW,285,1.0,4.0,27,0.00,,,0.00,Wunderground v.1.15,2013-05-01 21:55:00,
2013-05-01 18:00:00,70.8,34.2,30.29,WNW,282,1.0,1.0,26,0.00,,,0.00,Wunderground v.1.15,2013-05-01 22:00:00,
2013-05-01 18:08:00,71.1,36.3,30.29,WSW,258,0.0,1.0,28,0.00,,,0.00,Wunderground v.1.15,2013-05-01 22:08:00,
2013-05-01 18:16:00,71.3,35.6,30.29,WNW,295,0.0,0.0,27,0.00,,,0.00,Wunderground v.1.15,2013-05-01 22:16:00,
2013-05-01 18:22:00,71.3,35.6,30.29,WNW,295,0.0,0.0,27,0.00,,,0.00,Wunderground v.1.15,2013-05-01 22:22:00,
2013-05-01 18:28:00,71.1,36.3,30.29,WNW,295,0.0,0.0,28,0.00,,,0.00,Wunderground v.1.15,2013-05-01 22:28:00,
2013-05-01 18:36:00,70.9,35.2,30.29,NW,309,0.0,0.0,27,0.00,,,0.00,Wunderground v.1.15,2013-05-01 22:36:00,
2013-05-01 18:42:00,70.8,35.1,30.29,NNW,340,0.0,0.0,27,0.00,,,0.00,Wunderground v.1.15,2013-05-01 22:42:00,
2013-05-01 18:47:00,70.1,35.5,30.29,WNW,299,0.0,0.0,28,0.00,,,0.00,Wunderground v.1.15,2013-05-01 22:47:00,
2013-05-01 18:52:00,69.6,35.0,30.29,West,280,0.0,5.0,28,0.00,,,0.00,Wunderground v.1.15,2013-05-01 22:52:00,
2013-05-01 18:58:00,69.3,35.7,30.29,NW,316,0.0,5.0,29,0.00,,,0.00,Wunderground v.1.15,2013-05-01 22:58:00,
2013-05-01 19:08:00,68.4,34.9,30.29,NW,323,0.0,1.0,29,0.00,,,0.00,Wunderground v.1.15,2013-05-01 23:08:00,
2013-05-01 19:16:00,67.6,37.5,30.29,NW,306,0.0,0.0,33,0.00,,,0.00,Wunderground v.1.15,2013-05-01 23:16:00,
2013-05-01 19:22:00,67.1,34.6,30.29,NW,312,0.0,2.0,30,0.00,,,0.00,Wunderground v.1.15,2013-05-01 23:22:00,
2013-05-01 19:28:00,66.6,35.8,30.29,WNW,301,0.0,2.0,32,0.00,,,0.00,Wunderground v.1.15,2013-05-01 23:28:00,
2013-05-01 19:35:00,66.0,36.1,30.29,NW,313,0.0,0.0,33,0.00,,,0.00,Wunderground v.1.15,2013-05-01 23:35:00,
2013-05-01 19:41:00,65.6,36.5,30.29,NW,319,0.0,0.0,34,0.00,,,0.00,Wunderground v.1.15,2013-05-01 23:41:00,
2013-05-01 19:47:00,65.2,36.1,30.30,SW,233,0.0,0.0,34,0.00,,,0.00,Wunderground v.1.15,2013-05-01 23:47:00,
2013-05-01 19:52:00,64.8,36.5,30.30,SW,233,0.0,0.0,35,0.00,,,0.00,Wunderground v.1.15,2013-05-01 23:52:00,
2013-05-01 19:57:00,64.3,35.3,30.30,SSE,161,0.0,1.0,34,0.00,,,0.00,Wunderground v.1.15,2013-05-01 23:57:00,
2013-05-01 20:05:00,63.9,36.4,30.30,SSE,161,0.0,0.0,36,0.00,,,0.00,Wunderground v.1.15,2013-05-02 00:05:00,
2013-05-01 20:11:00,63.4,36.0,30.30,WSW,248,0.0,0.0,36,0.00,,,0.00,Wunderground v.1.15,2013-05-02 00:11:00,
2013-05-01 20:18:00,62.7,36.0,30.30,West,270,0.0,0.0,37,0.00,,,0.00,Wunderground v.1.15,2013-05-02 00:18:00,
2013-05-01 20:25:00,62.3,36.4,30.30,South,182,0.0,0.0,38,0.00,,,0.00,Wunderground v.1.15,2013-05-02 00:25:00,
2013-05-01 20:31:00,61.8,35.9,30.31,South,184,0.0,0.0,38,0.00,,,0.00,Wunderground v.1.15,2013-05-02 00:31:00,
2013-05-01 20:37:00,61.3,36.1,30.31,South,186,0.0,1.0,39,0.00,,,0.00,Wunderground v.1.15,2013-05-02 00:37:00,
2013-05-01 20:45:00,60.9,36.4,30.31,South,188,0.0,0.0,40,0.00,,,0.00,Wunderground v.1.15,2013-05-02 00:45:00,
2013-05-01 20:51:00,60.4,35.9,30.31,South,188,0.0,0.0,40,0.00,,,0.00,Wunderground v.1.15,2013-05-02 00:51:00,
2013-05-01 20:57:00,60.1,35.7,30.31,South,188,0.0,0.0,40,0.00,,,0.00,Wunderground v.1.15,2013-05-02 00:57:00,
2013-05-01 21:02:00,59.8,36.0,30.32,South,188,0.0,0.0,41,0.00,,,0.00,Wunderground v.1.15,2013-05-02 01:02:00,
2013-05-01 21:10:00,59.3,36.2,30.32,South,189,0.0,0.0,42,0.00,,,0.00,Wunderground v.1.15,2013-05-02 01:10:00,
2013-05-01 21:18:00,59.0,35.3,30.31,South,189,0.0,0.0,41,0.00,,,0.00,Wunderground v.1.15,2013-05-02 01:18:00,
2013-05-01 21:25:00,58.6,35.6,30.31,South,189,0.0,0.0,42,0.00,,,0.00,Wunderground v.1.15,2013-05-02 01:25:00,
2013-05-01 21:30:00,58.4,35.4,30.32,South,189,0.0,0.0,42,0.00,,,0.00,Wunderground v.1.15,2013-05-02 01:30:00,
2013-05-01 21:37:00,58.0,35.6,30.32,South,191,0.0,0.0,43,0.00,,,0.00,Wunderground v.1.15,2013-05-02 01:37:00,
2013-05-01 21:51:00,57.2,35.5,30.32,WSW,258,0.0,0.0,44,0.00,,,0.00,Wunderground v.1.15,2013-05-02 01:51:00,
2013-05-01 21:57:00,56.9,35.8,30.32,WSW,256,0.0,0.0,45,0.00,,,0.00,Wunderground v.1.15,2013-05-02 01:57:00,
2013-05-01 22:07:00,56.3,35.2,30.32,West,260,0.0,0.0,45,0.00,,,0.00,Wunderground v.1.15,2013-05-02 02:07:00,
2013-05-01 22:15:00,55.9,35.4,30.32,WSW,257,0.0,0.0,46,0.00,,,0.00,Wunderground v.1.15,2013-05-02 02:15:00,
2013-05-01 22:20:00,55.6,35.1,30.32,West,260,0.0,0.0,46,0.00,,,0.00,Wunderground v.1.15,2013-05-02 02:20:00,
2013-05-01 22:28:00,55.1,36.3,30.32,West,264,0.0,0.0,49,0.00,,,0.00,Wunderground v.1.15,2013-05-02 02:28:00,
2013-05-01 22:36:00,54.8,37.0,30.33,NW,305,0.0,1.0,51,0.00,,,0.00,Wunderground v.1.15,2013-05-02 02:36:00,
2013-05-01 22:41:00,55.1,37.8,30.33,WNW,292,0.0,0.0,52,0.00,,,0.00,Wunderground v.1.15,2013-05-02 02:41:00,
2013-05-01 22:48:00,55.4,38.5,30.33,West,280,0.0,2.0,53,0.00,,,0.00,Wunderground v.1.15,2013-05-02 02:48:00,
2013-05-01 22:56:00,55.7,41.1,30.33,North,352,0.0,1.0,58,0.00,,,0.00,Wunderground v.1.15,2013-05-02 02:56:00,
2013-05-01 23:02:00,55.9,42.2,30.34,WNW,299,0.0,0.0,60,0.00,,,0.00,Wunderground v.1.15,2013-05-02 03:02:00,
2013-05-01 23:07:00,55.9,42.6,30.34,WNW,301,0.0,0.0,61,0.00,,,0.00,Wunderground v.1.15,2013-05-02 03:07:00,
2013-05-01 23:12:00,55.7,42.9,30.34,NW,306,0.0,1.0,62,0.00,,,0.00,Wunderground v.1.15,2013-05-02 03:12:00,
2013-05-01 23:18:00,55.6,43.6,30.34,West,260,0.0,2.0,64,0.00,,,0.00,Wunderground v.1.15,2013-05-02 03:18:00,
2013-05-01 23:25:00,55.3,43.3,30.34,WNW,302,0.0,0.0,64,0.00,,,0.00,Wunderground v.1.15,2013-05-02 03:25:00,
2013-05-01 23:30:00,55.1,43.1,30.34,WNW,298,0.0,0.0,64,0.00,,,0.00,Wunderground v.1.15,2013-05-02 03:30:00,
2013-05-01 23:35:00,54.8,43.3,30.34,WNW,294,0.0,0.0,65,0.00,,,0.00,Wunderground v.1.15,2013-05-02 03:35:00,
2013-05-01 23:40:00,54.7,43.2,30.34,WNW,294,0.0,0.0,65,0.00,,,0.00,Wunderground v.1.15,2013-05-02 03:40:00,
2013-05-01 23:46:00,54.4,43.7,30.35,West,277,0.0,0.0,67,0.00,,,0.00,Wunderground v.1.15,2013-05-02 03:46:00,
2013-05-01 23:51:00,54.2,43.5,30.35,NW,309,0.0,2.0,67,0.00,,,0.00,Wunderground v.1.15,2013-05-02 03:51:00,
2013-05-01 23:56:00,54.1,43.4,30.35,NW,308,0.0,2.0,67,0.00,,,0.00,Wunderground v.1.15,2013-05-02 03:56:00,